owner,sensor,date,latitude,longitude,vertical_datum,mass_concentration_of_oxygen_in_sea_water,qcFlag 
SCCF RECON,ioos:station:SCCF:56:1,2016-05-01T00:00:00Z,26.4645,-82.1044,2.067,8.65,1111122 
SCCF RECON,ioos:station:SCCF:56:1,2016-05-01T01:00:00Z,26.4645,-82.1044,2.11,8.9,1111122 
SCCF RECON,ioos:station:SCCF:56:1,2016-05-01T02:00:00Z,26.4645,-82.1044,2.07,7.9,1111122 
SCCF RECON,ioos:station:SCCF:56:1,2016-05-01T03:00:00Z,26.4645,-82.1044,1.99,7.58,1111122 
SCCF RECON,ioos:station:SCCF:56:1,2016-05-01T04:00:00Z,26.4645,-82.1044,1.871,6.34,1111122 
SCCF RECON,ioos:station:SCCF:56:1,2016-05-01T05:00:00Z,26.4645,-82.1044,1.76,4.83,1111122 
SCCF RECON,ioos:station:SCCF:56:1,2016-05-01T06:00:00Z,26.4645,-82.1044,1.661,3.76,1111122 
SCCF RECON,ioos:station:SCCF:56:1,2016-05-01T07:00:00Z,26.4645,-82.1044,1.557,3.21,1111122 
SCCF RECON,ioos:station:SCCF:56:1,2016-05-01T08:00:00Z,26.4645,-82.1044,1.499,2.86,1111122 
SCCF RECON,ioos:station:SCCF:56:1,2016-05-01T09:00:00Z,26.4645,-82.1044,1.549,2.67,1111122 
SCCF RECON,ioos:station:SCCF:56:1,2016-05-01T10:00:00Z,26.4645,-82.1044,1.689,4.08,1111122 
SCCF RECON,ioos:station:SCCF:56:1,2016-05-01T11:00:00Z,26.4645,-82.1044,1.828,4.59,1111122 
SCCF RECON,ioos:station:SCCF:56:1,2016-05-01T12:00:00Z,26.4645,-82.1044,1.914,4.65,1111122 
SCCF RECON,ioos:station:SCCF:56:1,2016-05-01T13:00:00Z,26.4645,-82.1044,1.98,5.1,1111122 
SCCF RECON,ioos:station:SCCF:56:1,2016-05-01T14:00:00Z,26.4645,-82.1044,2.03,5.61,1111122 
SCCF RECON,ioos:station:SCCF:56:1,2016-05-01T15:00:00Z,26.4645,-82.1044,2.058,5.83,1111122 
SCCF RECON,ioos:station:SCCF:56:1,2016-05-01T16:00:00Z,26.4645,-82.1044,2.013,5.35,1111122 
SCCF RECON,ioos:station:SCCF:56:1,2016-05-01T17:00:00Z,26.4645,-82.1044,1.922,5.63,1111122 
SCCF RECON,ioos:station:SCCF:56:1,2016-05-01T18:00:00Z,26.4645,-82.1044,1.849,5.64,1111122 
SCCF RECON,ioos:station:SCCF:56:1,2016-05-01T19:00:00Z,26.4645,-82.1044,1.78,5.9,1111122 
SCCF RECON,ioos:station:SCCF:56:1,2016-05-01T20:00:00Z,26.4645,-82.1044,1.787,6.33,1111122 
SCCF RECON,ioos:station:SCCF:56:1,2016-05-01T21:00:00Z,26.4645,-82.1044,1.86,7.82,1111122 
SCCF RECON,ioos:station:SCCF:56:1,2016-05-01T22:00:00Z,26.4645,-82.1044,1.96,10.45,1111122 
SCCF RECON,ioos:station:SCCF:56:1,2016-05-01T23:00:00Z,26.4645,-82.1044,2.04,9.43,1111122 
SCCF RECON,ioos:station:SCCF:56:1,2016-05-02T00:00:00Z,26.4645,-82.1044,2.099,7.02,1111122 
SCCF RECON,ioos:station:SCCF:56:1,2016-05-02T01:00:00Z,26.4645,-82.1044,2.15,6.09,1111122 
SCCF RECON,ioos:station:SCCF:56:1,2016-05-02T02:00:00Z,26.4645,-82.1044,2.17,5.78,1111122 
SCCF RECON,ioos:station:SCCF:56:1,2016-05-02T03:00:00Z,26.4645,-82.1044,2.119,7.37,1111122 
SCCF RECON,ioos:station:SCCF:56:1,2016-05-02T04:00:00Z,26.4645,-82.1044,2.03,5.94,1111122 
SCCF RECON,ioos:station:SCCF:56:1,2016-05-02T05:00:00Z,26.4645,-82.1044,1.94,5.8,1111122 
SCCF RECON,ioos:station:SCCF:56:1,2016-05-02T06:00:00Z,26.4645,-82.1044,1.8,5.32,1111122 
SCCF RECON,ioos:station:SCCF:56:1,2016-05-02T07:00:00Z,26.4645,-82.1044,1.67,4.41,1111122 
SCCF RECON,ioos:station:SCCF:56:1,2016-05-02T08:00:00Z,26.4645,-82.1044,1.59,3.71,1111122 
SCCF RECON,ioos:station:SCCF:56:1,2016-05-02T09:00:00Z,26.4645,-82.1044,1.551,3.32,1111122 
SCCF RECON,ioos:station:SCCF:56:1,2016-05-02T10:00:00Z,26.4645,-82.1044,1.64,2.95,1111122 
SCCF RECON,ioos:station:SCCF:56:1,2016-05-02T11:00:00Z,26.4645,-82.1044,1.78,3.87,1111122 
SCCF RECON,ioos:station:SCCF:56:1,2016-05-02T12:00:00Z,26.4645,-82.1044,1.9,3.81,1111122 
SCCF RECON,ioos:station:SCCF:56:1,2016-05-02T13:00:00Z,26.4645,-82.1044,2.01,3.93,1111122 
SCCF RECON,ioos:station:SCCF:56:1,2016-05-02T14:00:00Z,26.4645,-82.1044,2.08,5.4,1111122 
SCCF RECON,ioos:station:SCCF:56:1,2016-05-02T15:00:00Z,26.4645,-82.1044,2.119,5.85,1111122 
SCCF RECON,ioos:station:SCCF:56:1,2016-05-02T16:00:00Z,26.4645,-82.1044,2.11,6.43,1111122 
SCCF RECON,ioos:station:SCCF:56:1,2016-05-02T17:00:00Z,26.4645,-82.1044,2.03,5.41,1111122 
SCCF RECON,ioos:station:SCCF:56:1,2016-05-02T18:00:00Z,26.4645,-82.1044,1.91,6.19,1111122 
SCCF RECON,ioos:station:SCCF:56:1,2016-05-02T19:00:00Z,26.4645,-82.1044,1.8,6.17,1111122 
SCCF RECON,ioos:station:SCCF:56:1,2016-05-02T20:00:00Z,26.4645,-82.1044,1.71,6.26,1111122 
SCCF RECON,ioos:station:SCCF:56:1,2016-05-02T21:00:00Z,26.4645,-82.1044,1.66,6.66,1111122 
SCCF RECON,ioos:station:SCCF:56:1,2016-05-02T22:00:00Z,26.4645,-82.1044,1.7,6.87,1111122 
SCCF RECON,ioos:station:SCCF:56:1,2016-05-02T23:00:00Z,26.4645,-82.1044,1.82,10.38,1111122 
SCCF RECON,ioos:station:SCCF:56:1,2016-05-03T00:00:00Z,26.4645,-82.1044,1.94,6.96,1111122 
SCCF RECON,ioos:station:SCCF:56:1,2016-05-03T01:00:00Z,26.4645,-82.1044,2.035,6.44,1111122 
SCCF RECON,ioos:station:SCCF:56:1,2016-05-03T02:00:00Z,26.4645,-82.1044,2.091,6.52,1111122 
SCCF RECON,ioos:station:SCCF:56:1,2016-05-03T03:00:00Z,26.4645,-82.1044,2.12,6.63,1111122 
SCCF RECON,ioos:station:SCCF:56:1,2016-05-03T04:00:00Z,26.4645,-82.1044,2.1,6.44,1111122 
SCCF RECON,ioos:station:SCCF:56:1,2016-05-03T05:00:00Z,26.4645,-82.1044,2.02,6.22,1111122 
SCCF RECON,ioos:station:SCCF:56:1,2016-05-03T06:00:00Z,26.4645,-82.1044,1.89,5.38,1111122 
SCCF RECON,ioos:station:SCCF:56:1,2016-05-03T07:00:00Z,26.4645,-82.1044,1.77,4.82,1111122 
SCCF RECON,ioos:station:SCCF:56:1,2016-05-03T08:00:00Z,26.4645,-82.1044,1.66,4.19,1111122 
SCCF RECON,ioos:station:SCCF:56:1,2016-05-03T09:00:00Z,26.4645,-82.1044,1.57,3.55,1111122 
SCCF RECON,ioos:station:SCCF:56:1,2016-05-03T10:00:00Z,26.4645,-82.1044,1.583,3.2,1111122 
SCCF RECON,ioos:station:SCCF:56:1,2016-05-03T11:00:00Z,26.4645,-82.1044,1.72,2.66,1111122 
SCCF RECON,ioos:station:SCCF:56:1,2016-05-03T12:00:00Z,26.4645,-82.1044,1.859,3.35,1111122 
SCCF RECON,ioos:station:SCCF:56:1,2016-05-03T13:00:00Z,26.4645,-82.1044,1.95,4.04,1111122 
SCCF RECON,ioos:station:SCCF:56:1,2016-05-03T14:00:00Z,26.4645,-82.1044,2.04,5.25,1111122 
SCCF RECON,ioos:station:SCCF:56:1,2016-05-03T15:00:00Z,26.4645,-82.1044,2.1,6.48,1111122 
SCCF RECON,ioos:station:SCCF:56:1,2016-05-03T16:00:00Z,26.4645,-82.1044,2.13,6.74,1111122 
SCCF RECON,ioos:station:SCCF:56:1,2016-05-03T17:00:00Z,26.4645,-82.1044,2.075,6.69,1111122 
SCCF RECON,ioos:station:SCCF:56:1,2016-05-03T18:00:00Z,26.4645,-82.1044,1.94,6.82,1111122 
SCCF RECON,ioos:station:SCCF:56:1,2016-05-03T19:00:00Z,26.4645,-82.1044,1.8,6.17,1111122 
SCCF RECON,ioos:station:SCCF:56:1,2016-05-03T20:00:00Z,26.4645,-82.1044,1.67,6.2,1111122 
SCCF RECON,ioos:station:SCCF:56:1,2016-05-03T21:00:00Z,26.4645,-82.1044,1.572,7.12,1111122 
SCCF RECON,ioos:station:SCCF:56:1,2016-05-03T22:00:00Z,26.4645,-82.1044,1.536,7.39,1111122 
SCCF RECON,ioos:station:SCCF:56:1,2016-05-03T23:00:00Z,26.4645,-82.1044,1.589,7.43,1111122 
SCCF RECON,ioos:station:SCCF:56:1,2016-05-04T00:00:00Z,26.4645,-82.1044,1.73,9.99,1111122 
SCCF RECON,ioos:station:SCCF:56:1,2016-05-04T01:00:00Z,26.4645,-82.1044,1.872,8.03,1111122 
SCCF RECON,ioos:station:SCCF:56:1,2016-05-04T02:00:00Z,26.4645,-82.1044,1.97,7.74,1111122 
SCCF RECON,ioos:station:SCCF:56:1,2016-05-04T03:00:00Z,26.4645,-82.1044,2.05,7.08,1111122 
SCCF RECON,ioos:station:SCCF:56:1,2016-05-04T04:00:00Z,26.4645,-82.1044,2.107,6.73,1111122 
SCCF RECON,ioos:station:SCCF:56:1,2016-05-04T05:00:00Z,26.4645,-82.1044,2.11,6.2,1111122 
SCCF RECON,ioos:station:SCCF:56:1,2016-05-04T06:00:00Z,26.4645,-82.1044,1.98,6.05,1111122 
SCCF RECON,ioos:station:SCCF:56:1,2016-05-04T07:00:00Z,26.4645,-82.1044,1.838,5.61,1111122 
SCCF RECON,ioos:station:SCCF:56:1,2016-05-04T08:00:00Z,26.4645,-82.1044,1.71,4.86,1111122 
SCCF RECON,ioos:station:SCCF:56:1,2016-05-04T09:00:00Z,26.4645,-82.1044,1.59,4.09,1111122 
SCCF RECON,ioos:station:SCCF:56:1,2016-05-04T10:00:00Z,26.4645,-82.1044,1.52,3.38,1111122 
SCCF RECON,ioos:station:SCCF:56:1,2016-05-04T11:00:00Z,26.4645,-82.1044,1.58,3.11,1111122 
SCCF RECON,ioos:station:SCCF:56:1,2016-05-04T12:00:00Z,26.4645,-82.1044,1.73,2.74,1111122 
SCCF RECON,ioos:station:SCCF:56:1,2016-05-04T13:00:00Z,26.4645,-82.1044,1.883,2.75,1111122 
SCCF RECON,ioos:station:SCCF:56:1,2016-05-04T14:00:00Z,26.4645,-82.1044,2.013,4.0,1111122 
SCCF RECON,ioos:station:SCCF:56:1,2016-05-04T15:00:00Z,26.4645,-82.1044,2.11,4.69,1111122 
SCCF RECON,ioos:station:SCCF:56:1,2016-05-04T16:00:00Z,26.4645,-82.1044,2.15,4.83,1111122 
SCCF RECON,ioos:station:SCCF:56:1,2016-05-04T17:00:00Z,26.4645,-82.1044,2.141,4.93,1111122 
SCCF RECON,ioos:station:SCCF:56:1,2016-05-04T18:00:00Z,26.4645,-82.1044,2.13,4.85,1111122 
SCCF RECON,ioos:station:SCCF:56:1,2016-05-04T19:00:00Z,26.4645,-82.1044,1.931,4.9,1111122 
SCCF RECON,ioos:station:SCCF:56:1,2016-05-04T20:00:00Z,26.4645,-82.1044,1.712,3.91,1111122 
SCCF RECON,ioos:station:SCCF:56:1,2016-05-04T21:00:00Z,26.4645,-82.1044,1.57,3.42,1111122 
SCCF RECON,ioos:station:SCCF:56:1,2016-05-04T22:00:00Z,26.4645,-82.1044,1.43,3.36,1111122 
SCCF RECON,ioos:station:SCCF:56:1,2016-05-04T23:00:00Z,26.4645,-82.1044,1.42,3.47,1111122 
SCCF RECON,ioos:station:SCCF:56:1,2016-05-05T00:00:00Z,26.4645,-82.1044,1.59,4.43,1111122 
SCCF RECON,ioos:station:SCCF:56:1,2016-05-05T01:00:00Z,26.4645,-82.1044,1.798,4.81,1111122 
SCCF RECON,ioos:station:SCCF:56:1,2016-05-05T02:00:00Z,26.4645,-82.1044,2.035,4.46,1111122 
SCCF RECON,ioos:station:SCCF:56:1,2016-05-05T03:00:00Z,26.4645,-82.1044,2.08,4.68,1111122 
SCCF RECON,ioos:station:SCCF:56:1,2016-05-05T04:00:00Z,26.4645,-82.1044,2.11,4.54,1111122 
SCCF RECON,ioos:station:SCCF:56:1,2016-05-05T05:00:00Z,26.4645,-82.1044,2.12,4.52,1111122 
SCCF RECON,ioos:station:SCCF:56:1,2016-05-05T06:00:00Z,26.4645,-82.1044,2.084,4.3,1111122 
SCCF RECON,ioos:station:SCCF:56:1,2016-05-05T07:00:00Z,26.4645,-82.1044,1.983,4.26,1111122 
SCCF RECON,ioos:station:SCCF:56:1,2016-05-05T08:00:00Z,26.4645,-82.1044,1.88,3.8,1111122 
SCCF RECON,ioos:station:SCCF:56:1,2016-05-05T09:00:00Z,26.4645,-82.1044,1.77,3.41,1111122 
SCCF RECON,ioos:station:SCCF:56:1,2016-05-05T10:00:00Z,26.4645,-82.1044,1.66,3.09,1111122 
SCCF RECON,ioos:station:SCCF:56:1,2016-05-05T11:00:00Z,26.4645,-82.1044,1.57,2.96,1111122 
SCCF RECON,ioos:station:SCCF:56:1,2016-05-05T12:00:00Z,26.4645,-82.1044,1.522,2.84,1111122 
SCCF RECON,ioos:station:SCCF:56:1,2016-05-05T13:00:00Z,26.4645,-82.1044,1.59,3.83,1111122 
SCCF RECON,ioos:station:SCCF:56:1,2016-05-05T14:00:00Z,26.4645,-82.1044,1.81,6.35,1111122 
SCCF RECON,ioos:station:SCCF:56:1,2016-05-05T15:00:00Z,26.4645,-82.1044,1.968,6.23,1111122 
SCCF RECON,ioos:station:SCCF:56:1,2016-05-05T16:00:00Z,26.4645,-82.1044,2.04,6.88,1111122 
SCCF RECON,ioos:station:SCCF:56:1,2016-05-05T17:00:00Z,26.4645,-82.1044,2.09,6.81,1111122 
SCCF RECON,ioos:station:SCCF:56:1,2016-05-05T18:00:00Z,26.4645,-82.1044,1.95,5.82,1111122 
SCCF RECON,ioos:station:SCCF:56:1,2016-05-05T19:00:00Z,26.4645,-82.1044,1.775,5.88,1111122 
SCCF RECON,ioos:station:SCCF:56:1,2016-05-05T20:00:00Z,26.4645,-82.1044,1.626,5.92,1111122 
SCCF RECON,ioos:station:SCCF:56:1,2016-05-05T21:00:00Z,26.4645,-82.1044,1.5,6.15,1111122 
SCCF RECON,ioos:station:SCCF:56:1,2016-05-05T22:00:00Z,26.4645,-82.1044,1.38,6.59,1111122 
SCCF RECON,ioos:station:SCCF:56:1,2016-05-05T23:00:00Z,26.4645,-82.1044,1.289,6.99,1111122 
SCCF RECON,ioos:station:SCCF:56:1,2016-05-06T00:00:00Z,26.4645,-82.1044,1.3,7.02,1111122 
SCCF RECON,ioos:station:SCCF:56:1,2016-05-06T01:00:00Z,26.4645,-82.1044,1.38,8.26,1111122 
SCCF RECON,ioos:station:SCCF:56:1,2016-05-06T02:00:00Z,26.4645,-82.1044,1.56,6.57,1111122 
SCCF RECON,ioos:station:SCCF:56:1,2016-05-06T03:00:00Z,26.4645,-82.1044,1.729,5.77,1111122 
SCCF RECON,ioos:station:SCCF:56:1,2016-05-06T04:00:00Z,26.4645,-82.1044,1.89,5.82,1111122 
SCCF RECON,ioos:station:SCCF:56:1,2016-05-06T05:00:00Z,26.4645,-82.1044,2.014,5.99,1111122 
SCCF RECON,ioos:station:SCCF:56:1,2016-05-06T06:00:00Z,26.4645,-82.1044,2.08,6.0,1111122 
SCCF RECON,ioos:station:SCCF:56:1,2016-05-06T07:00:00Z,26.4645,-82.1044,2.04,6.34,1111122 
SCCF RECON,ioos:station:SCCF:56:1,2016-05-06T08:00:00Z,26.4645,-82.1044,1.92,5.72,1111122 
SCCF RECON,ioos:station:SCCF:56:1,2016-05-06T09:00:00Z,26.4645,-82.1044,1.79,5.31,1111122 
SCCF RECON,ioos:station:SCCF:56:1,2016-05-06T10:00:00Z,26.4645,-82.1044,1.7,4.74,1111122 
SCCF RECON,ioos:station:SCCF:56:1,2016-05-06T11:00:00Z,26.4645,-82.1044,1.649,4.51,1111122 
SCCF RECON,ioos:station:SCCF:56:1,2016-05-06T12:00:00Z,26.4645,-82.1044,1.601,4.15,1111122 
SCCF RECON,ioos:station:SCCF:56:1,2016-05-06T13:00:00Z,26.4645,-82.1044,1.68,4.45,1111122 
SCCF RECON,ioos:station:SCCF:56:1,2016-05-06T14:00:00Z,26.4645,-82.1044,1.85,5.98,1111122 
SCCF RECON,ioos:station:SCCF:56:1,2016-05-06T15:00:00Z,26.4645,-82.1044,1.992,6.96,1111122 
SCCF RECON,ioos:station:SCCF:56:1,2016-05-06T16:00:00Z,26.4645,-82.1044,2.1,7.65,1111122 
SCCF RECON,ioos:station:SCCF:56:1,2016-05-06T17:00:00Z,26.4645,-82.1044,2.158,8.3,1111122 
SCCF RECON,ioos:station:SCCF:56:1,2016-05-06T18:00:00Z,26.4645,-82.1044,2.119,7.53,1111122 
SCCF RECON,ioos:station:SCCF:56:1,2016-05-06T19:00:00Z,26.4645,-82.1044,1.99,7.6,1111122 
SCCF RECON,ioos:station:SCCF:56:1,2016-05-06T20:00:00Z,26.4645,-82.1044,1.829,7.52,1111122 
SCCF RECON,ioos:station:SCCF:56:1,2016-05-06T21:00:00Z,26.4645,-82.1044,1.69,7.06,1111122 
SCCF RECON,ioos:station:SCCF:56:1,2016-05-06T22:00:00Z,26.4645,-82.1044,1.55,6.81,1111122 
SCCF RECON,ioos:station:SCCF:56:1,2016-05-06T23:00:00Z,26.4645,-82.1044,1.42,7.52,1111122 
SCCF RECON,ioos:station:SCCF:56:1,2016-05-07T00:00:00Z,26.4645,-82.1044,1.303,7.38,1111122 
SCCF RECON,ioos:station:SCCF:56:1,2016-05-07T01:00:00Z,26.4645,-82.1044,1.24,6.95,1111122 
SCCF RECON,ioos:station:SCCF:56:1,2016-05-07T02:00:00Z,26.4645,-82.1044,1.335,7.71,1111122 
SCCF RECON,ioos:station:SCCF:56:1,2016-05-07T03:00:00Z,26.4645,-82.1044,1.53,6.71,1111122 
SCCF RECON,ioos:station:SCCF:56:1,2016-05-07T04:00:00Z,26.4645,-82.1044,1.72,5.72,1111122 
SCCF RECON,ioos:station:SCCF:56:1,2016-05-07T05:00:00Z,26.4645,-82.1044,1.868,5.64,1111122 
SCCF RECON,ioos:station:SCCF:56:1,2016-05-07T06:00:00Z,26.4645,-82.1044,1.997,5.98,1111122 
SCCF RECON,ioos:station:SCCF:56:1,2016-05-07T07:00:00Z,26.4645,-82.1044,2.019,5.98,1111122 
SCCF RECON,ioos:station:SCCF:56:1,2016-05-07T08:00:00Z,26.4645,-82.1044,1.95,6.41,1111122 
SCCF RECON,ioos:station:SCCF:56:1,2016-05-07T09:00:00Z,26.4645,-82.1044,1.8,5.96,1111122 
SCCF RECON,ioos:station:SCCF:56:1,2016-05-07T10:00:00Z,26.4645,-82.1044,1.68,5.36,1111122 
SCCF RECON,ioos:station:SCCF:56:1,2016-05-07T11:00:00Z,26.4645,-82.1044,1.625,4.87,1111122 
SCCF RECON,ioos:station:SCCF:56:1,2016-05-07T12:00:00Z,26.4645,-82.1044,1.6,4.66,1111122 
SCCF RECON,ioos:station:SCCF:56:1,2016-05-07T13:00:00Z,26.4645,-82.1044,1.651,4.86,1111122 
SCCF RECON,ioos:station:SCCF:56:1,2016-05-07T14:00:00Z,26.4645,-82.1044,1.78,5.92,1111122 
SCCF RECON,ioos:station:SCCF:56:1,2016-05-07T15:00:00Z,26.4645,-82.1044,1.923,8.1,1111122 
SCCF RECON,ioos:station:SCCF:56:1,2016-05-07T16:00:00Z,26.4645,-82.1044,2.069,8.4,1111122 
SCCF RECON,ioos:station:SCCF:56:1,2016-05-07T17:00:00Z,26.4645,-82.1044,2.151,8.5,1111122 
SCCF RECON,ioos:station:SCCF:56:1,2016-05-07T18:00:00Z,26.4645,-82.1044,2.179,8.2,1111122 
SCCF RECON,ioos:station:SCCF:56:1,2016-05-07T19:00:00Z,26.4645,-82.1044,2.139,8.27,1111122 
SCCF RECON,ioos:station:SCCF:56:1,2016-05-07T20:00:00Z,26.4645,-82.1044,2.0,8.22,1111122 
SCCF RECON,ioos:station:SCCF:56:1,2016-05-07T21:00:00Z,26.4645,-82.1044,1.836,8.0,1111122 
SCCF RECON,ioos:station:SCCF:56:1,2016-05-07T22:00:00Z,26.4645,-82.1044,1.7,7.9,1111122 
SCCF RECON,ioos:station:SCCF:56:1,2016-05-07T23:00:00Z,26.4645,-82.1044,1.56,7.56,1111122 
SCCF RECON,ioos:station:SCCF:56:1,2016-05-08T00:00:00Z,26.4645,-82.1044,1.427,7.29,1111122 
SCCF RECON,ioos:station:SCCF:56:1,2016-05-08T01:00:00Z,26.4645,-82.1044,1.326,7.59,1111122 
SCCF RECON,ioos:station:SCCF:56:1,2016-05-08T02:00:00Z,26.4645,-82.1044,1.28,6.99,1111122 
SCCF RECON,ioos:station:SCCF:56:1,2016-05-08T03:00:00Z,26.4645,-82.1044,1.38,7.38,1111122 
SCCF RECON,ioos:station:SCCF:56:1,2016-05-08T04:00:00Z,26.4645,-82.1044,1.577,6.99,1111122 
SCCF RECON,ioos:station:SCCF:56:1,2016-05-08T05:00:00Z,26.4645,-82.1044,1.74,6.27,1111122 
SCCF RECON,ioos:station:SCCF:56:1,2016-05-08T06:00:00Z,26.4645,-82.1044,1.89,5.09,1111122 
SCCF RECON,ioos:station:SCCF:56:1,2016-05-08T07:00:00Z,26.4645,-82.1044,1.98,5.52,1111122 
SCCF RECON,ioos:station:SCCF:56:1,2016-05-08T08:00:00Z,26.4645,-82.1044,2.01,6.1,1111122 
SCCF RECON,ioos:station:SCCF:56:1,2016-05-08T09:00:00Z,26.4645,-82.1044,1.93,6.22,1111122 
SCCF RECON,ioos:station:SCCF:56:1,2016-05-08T10:00:00Z,26.4645,-82.1044,1.81,5.95,1111122 
SCCF RECON,ioos:station:SCCF:56:1,2016-05-08T11:00:00Z,26.4645,-82.1044,1.73,5.64,1111122 
SCCF RECON,ioos:station:SCCF:56:1,2016-05-08T12:00:00Z,26.4645,-82.1044,1.68,5.04,1111122 
SCCF RECON,ioos:station:SCCF:56:1,2016-05-08T13:00:00Z,26.4645,-82.1044,1.668,4.79,1111122 
SCCF RECON,ioos:station:SCCF:56:1,2016-05-08T14:00:00Z,26.4645,-82.1044,1.75,6.97,1111122 
SCCF RECON,ioos:station:SCCF:56:1,2016-05-08T15:00:00Z,26.4645,-82.1044,1.898,7.88,1111122 
SCCF RECON,ioos:station:SCCF:56:1,2016-05-08T16:00:00Z,26.4645,-82.1044,2.028,8.36,1111122 
SCCF RECON,ioos:station:SCCF:56:1,2016-05-08T17:00:00Z,26.4645,-82.1044,2.12,8.67,1111122 
SCCF RECON,ioos:station:SCCF:56:1,2016-05-08T18:00:00Z,26.4645,-82.1044,2.178,8.97,1111122 
SCCF RECON,ioos:station:SCCF:56:1,2016-05-08T19:00:00Z,26.4645,-82.1044,2.162,9.63,1111122 
SCCF RECON,ioos:station:SCCF:56:1,2016-05-08T20:00:00Z,26.4645,-82.1044,2.08,8.76,1111122 
SCCF RECON,ioos:station:SCCF:56:1,2016-05-08T21:00:00Z,26.4645,-82.1044,1.96,8.65,1111122 
SCCF RECON,ioos:station:SCCF:56:1,2016-05-08T22:00:00Z,26.4645,-82.1044,1.8,8.14,1111122 
SCCF RECON,ioos:station:SCCF:56:1,2016-05-08T23:00:00Z,26.4645,-82.1044,1.64,7.95,1111122 
SCCF RECON,ioos:station:SCCF:56:1,2016-05-09T00:00:00Z,26.4645,-82.1044,1.5,7.76,1111122 
SCCF RECON,ioos:station:SCCF:56:1,2016-05-09T01:00:00Z,26.4645,-82.1044,1.38,7.61,1111122 
SCCF RECON,ioos:station:SCCF:56:1,2016-05-09T02:00:00Z,26.4645,-82.1044,1.3,7.42,1111122 
SCCF RECON,ioos:station:SCCF:56:1,2016-05-09T03:00:00Z,26.4645,-82.1044,1.3,7.07,1111122 
SCCF RECON,ioos:station:SCCF:56:1,2016-05-09T04:00:00Z,26.4645,-82.1044,1.472,7.06,1111122 
SCCF RECON,ioos:station:SCCF:56:1,2016-05-09T05:00:00Z,26.4645,-82.1044,1.659,6.12,1111122 
SCCF RECON,ioos:station:SCCF:56:1,2016-05-09T06:00:00Z,26.4645,-82.1044,1.848,5.8,1111122 
SCCF RECON,ioos:station:SCCF:56:1,2016-05-09T07:00:00Z,26.4645,-82.1044,1.95,6.07,1111122 
SCCF RECON,ioos:station:SCCF:56:1,2016-05-09T08:00:00Z,26.4645,-82.1044,2.02,6.19,1111122 
SCCF RECON,ioos:station:SCCF:56:1,2016-05-09T09:00:00Z,26.4645,-82.1044,2.016,6.49,1111122 
SCCF RECON,ioos:station:SCCF:56:1,2016-05-09T10:00:00Z,26.4645,-82.1044,1.926,6.59,1111122 
SCCF RECON,ioos:station:SCCF:56:1,2016-05-09T11:00:00Z,26.4645,-82.1044,1.85,6.18,1111122 
SCCF RECON,ioos:station:SCCF:56:1,2016-05-09T12:00:00Z,26.4645,-82.1044,1.81,6.21,1111122 
SCCF RECON,ioos:station:SCCF:56:1,2016-05-09T13:00:00Z,26.4645,-82.1044,1.799,5.81,1111122 
SCCF RECON,ioos:station:SCCF:56:1,2016-05-09T14:00:00Z,26.4645,-82.1044,1.85,6.21,1111122 
SCCF RECON,ioos:station:SCCF:56:1,2016-05-09T15:00:00Z,26.4645,-82.1044,1.939,7.43,1111122 
SCCF RECON,ioos:station:SCCF:56:1,2016-05-09T16:00:00Z,26.4645,-82.1044,2.055,8.07,1111122 
SCCF RECON,ioos:station:SCCF:56:1,2016-05-09T17:00:00Z,26.4645,-82.1044,2.15,8.7,1111122 
SCCF RECON,ioos:station:SCCF:56:1,2016-05-09T18:00:00Z,26.4645,-82.1044,2.201,8.87,1111122 
SCCF RECON,ioos:station:SCCF:56:1,2016-05-09T19:00:00Z,26.4645,-82.1044,2.22,8.95,1111122 
SCCF RECON,ioos:station:SCCF:56:1,2016-05-09T20:00:00Z,26.4645,-82.1044,2.19,9.28,1111122 
SCCF RECON,ioos:station:SCCF:56:1,2016-05-09T21:00:00Z,26.4645,-82.1044,2.072,8.69,1111122 
SCCF RECON,ioos:station:SCCF:56:1,2016-05-09T22:00:00Z,26.4645,-82.1044,1.94,8.14,1111122 
SCCF RECON,ioos:station:SCCF:56:1,2016-05-09T23:00:00Z,26.4645,-82.1044,1.795,7.26,1111122 
SCCF RECON,ioos:station:SCCF:56:1,2016-05-10T00:00:00Z,26.4645,-82.1044,1.664,7.5,1111122 
SCCF RECON,ioos:station:SCCF:56:1,2016-05-10T01:00:00Z,26.4645,-82.1044,1.54,7.14,1111122 
SCCF RECON,ioos:station:SCCF:56:1,2016-05-10T02:00:00Z,26.4645,-82.1044,1.422,7.0,1111122 
SCCF RECON,ioos:station:SCCF:56:1,2016-05-10T03:00:00Z,26.4645,-82.1044,1.34,6.39,1111122 
SCCF RECON,ioos:station:SCCF:56:1,2016-05-10T04:00:00Z,26.4645,-82.1044,1.37,6.02,1111122 
SCCF RECON,ioos:station:SCCF:56:1,2016-05-10T05:00:00Z,26.4645,-82.1044,1.537,6.95,1111122 
SCCF RECON,ioos:station:SCCF:56:1,2016-05-10T06:00:00Z,26.4645,-82.1044,1.688,6.25,1111122 
SCCF RECON,ioos:station:SCCF:56:1,2016-05-10T07:00:00Z,26.4645,-82.1044,1.775,5.45,1111122 
SCCF RECON,ioos:station:SCCF:56:1,2016-05-10T08:00:00Z,26.4645,-82.1044,1.86,6.19,1111122 
SCCF RECON,ioos:station:SCCF:56:1,2016-05-10T09:00:00Z,26.4645,-82.1044,1.922,6.7,1111122 
SCCF RECON,ioos:station:SCCF:56:1,2016-05-10T10:00:00Z,26.4645,-82.1044,1.938,6.43,1111122 
SCCF RECON,ioos:station:SCCF:56:1,2016-05-10T11:00:00Z,26.4645,-82.1044,1.911,5.99,1111122 
SCCF RECON,ioos:station:SCCF:56:1,2016-05-10T12:00:00Z,26.4645,-82.1044,1.883,5.73,1111122 
SCCF RECON,ioos:station:SCCF:56:1,2016-05-10T13:00:00Z,26.4645,-82.1044,1.87,6.13,1111122 
SCCF RECON,ioos:station:SCCF:56:1,2016-05-10T14:00:00Z,26.4645,-82.1044,1.9,5.95,1111122 
SCCF RECON,ioos:station:SCCF:56:1,2016-05-10T15:00:00Z,26.4645,-82.1044,1.98,7.05,1111122 
SCCF RECON,ioos:station:SCCF:56:1,2016-05-10T16:00:00Z,26.4645,-82.1044,2.04,8.18,1111122 
SCCF RECON,ioos:station:SCCF:56:1,2016-05-10T17:00:00Z,26.4645,-82.1044,2.103,8.77,1111122 
SCCF RECON,ioos:station:SCCF:56:1,2016-05-10T18:00:00Z,26.4645,-82.1044,2.163,8.82,1111122 
SCCF RECON,ioos:station:SCCF:56:1,2016-05-10T19:00:00Z,26.4645,-82.1044,2.203,8.9,1111122 
SCCF RECON,ioos:station:SCCF:56:1,2016-05-10T20:00:00Z,26.4645,-82.1044,2.216,8.8,1111122 
SCCF RECON,ioos:station:SCCF:56:1,2016-05-10T21:00:00Z,26.4645,-82.1044,2.19,8.58,1111122 
SCCF RECON,ioos:station:SCCF:56:1,2016-05-10T22:00:00Z,26.4645,-82.1044,2.13,8.84,1111122 
SCCF RECON,ioos:station:SCCF:56:1,2016-05-10T23:00:00Z,26.4645,-82.1044,1.99,7.94,1111122 
SCCF RECON,ioos:station:SCCF:56:1,2016-05-11T00:00:00Z,26.4645,-82.1044,1.833,7.65,1111122 
SCCF RECON,ioos:station:SCCF:56:1,2016-05-11T01:00:00Z,26.4645,-82.1044,1.691,6.81,1111122 
SCCF RECON,ioos:station:SCCF:56:1,2016-05-11T02:00:00Z,26.4645,-82.1044,1.56,6.52,1111122 
SCCF RECON,ioos:station:SCCF:56:1,2016-05-11T03:00:00Z,26.4645,-82.1044,1.459,6.01,1111122 
SCCF RECON,ioos:station:SCCF:56:1,2016-05-11T04:00:00Z,26.4645,-82.1044,1.4,5.72,1111122 
SCCF RECON,ioos:station:SCCF:56:1,2016-05-11T05:00:00Z,26.4645,-82.1044,1.42,5.25,1111122 
SCCF RECON,ioos:station:SCCF:56:1,2016-05-11T06:00:00Z,26.4645,-82.1044,1.56,5.54,1111122 
SCCF RECON,ioos:station:SCCF:56:1,2016-05-11T07:00:00Z,26.4645,-82.1044,1.701,5.16,1111122 
SCCF RECON,ioos:station:SCCF:56:1,2016-05-11T08:00:00Z,26.4645,-82.1044,1.802,4.47,1111122 
SCCF RECON,ioos:station:SCCF:56:1,2016-05-11T09:00:00Z,26.4645,-82.1044,1.85,6.33,1111122 
SCCF RECON,ioos:station:SCCF:56:1,2016-05-11T10:00:00Z,26.4645,-82.1044,1.9,5.98,1111122 
SCCF RECON,ioos:station:SCCF:56:1,2016-05-11T11:00:00Z,26.4645,-82.1044,1.87,5.58,1111122 
SCCF RECON,ioos:station:SCCF:56:1,2016-05-11T12:00:00Z,26.4645,-82.1044,1.828,5.59,1111122 
SCCF RECON,ioos:station:SCCF:56:1,2016-05-11T13:00:00Z,26.4645,-82.1044,1.81,5.33,1111122 
SCCF RECON,ioos:station:SCCF:56:1,2016-05-11T14:00:00Z,26.4645,-82.1044,1.821,5.5,1111122 
SCCF RECON,ioos:station:SCCF:56:1,2016-05-11T15:00:00Z,26.4645,-82.1044,1.84,5.27,1111122 
SCCF RECON,ioos:station:SCCF:56:1,2016-05-11T16:00:00Z,26.4645,-82.1044,1.897,7.24,1111122 
SCCF RECON,ioos:station:SCCF:56:1,2016-05-11T17:00:00Z,26.4645,-82.1044,1.93,8.61,1111122 
SCCF RECON,ioos:station:SCCF:56:1,2016-05-11T18:00:00Z,26.4645,-82.1044,1.97,9.23,1111122 
SCCF RECON,ioos:station:SCCF:56:1,2016-05-11T19:00:00Z,26.4645,-82.1044,2.036,9.03,1111122 
SCCF RECON,ioos:station:SCCF:56:1,2016-05-11T20:00:00Z,26.4645,-82.1044,2.093,8.97,1111122 
SCCF RECON,ioos:station:SCCF:56:1,2016-05-11T21:00:00Z,26.4645,-82.1044,2.13,8.21,1111122 